Regional Weather Roundup
Issued by NWS

Home | Current Version | Previous Version | Graphics & Text | Print | Product List | Glossary On
Versions: 1 2 3 4 5 6 7 8 9 10 11 12 13 14 15 16 17 18 19 20 21 22 23 24 25 26 27 28 29 30 31 32 33 34 35 36 37 38 39 40 41 42 43 44 45 46 47 48 49 50
000
ASUS44 KMEG 020610
RWRTN
TENNESSEE HOURLY STATE WEATHER ROUNDUP
NATIONAL WEATHER SERVICE MEMPHIS TN
100 AM CDT WED SEP 02 2015

TNZ002-004-019-021-049-052-054-088>092-020700-
WEST TENNESSEE

CITY           SKY/WX    TMP DP  RH WIND       PRES   REMARKS
MEMPHIS INTL   MOCLDY    81  71  71 E3        30.07F
NWS MEMPHIS      N/A     74 N/A N/A MISG        N/A
JACKSON        FAIR      72  71  97 CALM      30.09S FOG
DYERSBURG      FAIR      73  72  94 CALM      30.09F
UNION CITY     CLEAR    N/A N/A N/A CALM      30.08F
PARIS          CLEAR     70  66  88 CALM      30.10F
LEXINGTON      CLEAR     72  70  94 CALM      30.09F
$$

TNZ008-025-027-028-033-062-065-066-020700-
NORTH MIDDLE TENNESSEE

CITY           SKY/WX    TMP DP  RH WIND       PRES   REMARKS
NASHVILLE      FAIR      74  68  81 CALM      30.11F
CLARKSVILLE    FAIR      70  67  90 CALM      30.10F
SMYRNA         FAIR      69  68  97 CALM      30.11F
COOKEVILLE     MOCLDY    66  66 100 CALM      30.13S VSB 1/2
CROSSVILLE     FAIR      68  65  90 CALM      30.18S FOG
$$

TNZ061-075-076-078-094-096-097-020700-
SOUTH MIDDLE TENNESSEE

CITY           SKY/WX    TMP DP  RH WIND       PRES   REMARKS
FAYETTEVILLE   CLEAR     70  70 100 CALM      30.11F
MCMINNVILLE    CLOUDY    68  68 100 CALM      30.13F VSB 1/2
COLUMBIA       CLEAR    N/A N/A N/A CALM      30.10S
$$

TNZ017-018-042-046-047-020700-
NORTHEAST TENNESSEE

CITY           SKY/WX    TMP DP  RH WIND       PRES   REMARKS
TRI CITIES     FAIR      67  66  97 NE3       30.16S FOG
ELIZABETHTON   CLEAR     64  63  94 CALM      30.16S
$$

TNZ012-013-036-069-073-074-020700-
CENTRAL EAST TENNESSEE

CITY           SKY/WX    TMP DP  RH WIND       PRES   REMARKS
KNOXVILLE      FAIR      72  70  93 CALM      30.12S
OAK RIDGE      FAIR      71  68  90 CALM      30.14S
GATLINBURG     CLEAR     70  64  83 CALM      30.12F
$$

TNZ083-085-099-020700-
SOUTHEAST TENNESSEE

CITY           SKY/WX    TMP DP  RH WIND       PRES   REMARKS
CHATTANOOGA    FAIR      73  68  84 CALM      30.11F
$$

SKY/WX REPORTED AS FAIR MEANS FEW OR NO CLOUDS BELOW
12 THOUSAND FEET.




USA.gov is the U.S. government's official web portal to all federal, state and local government web resources and services.